EZY35AY EGGD-LFMN

Flight info

Callsign EZY35AY
Flight time N/A
Altitude 33000
Route YORQI L607 ALHAD UN859 VAPID L18 MID UL612 RESMI UM728 KETEX DCT KOTIS DCT KUKOR DCT UTUVA DCT LERGA DCT LIQID DCT LATAM DCT TUNUR DCT NISAR
Aircraft A320/M-SDE2E3FGHIJ1RWXYZ/LB1

Departure

Time N/A
Airport Bristol Airport (EGGD)

Arrival

Time 2026-05-07 12:09
Airport Nice-Côte d'Azur Airport (LFMN)
Time Latitude Longitude Altitude Speed Heading
2026-05-07 11:59 43.40840 6.57240 9659 ft 295 kts 130°
2026-05-07 11:59 43.39812 6.59678 9287 ft 296 kts 111°
2026-05-07 12:00 43.39397 6.62434 8914 ft 295 kts 93°
2026-05-07 12:00 43.39603 6.65204 8348 ft 290 kts 75°
2026-05-07 12:00 43.40231 6.67833 7720 ft 287 kts 71°
2026-05-07 12:00 43.40866 6.70417 7306 ft 284 kts 73°
2026-05-07 12:01 43.41114 6.73078 6916 ft 280 kts 91°
2026-05-07 12:01 43.40967 6.75680 6515 ft 268 kts 100°
2026-05-07 12:01 43.40590 6.78140 6123 ft 257 kts 103°
2026-05-07 12:01 43.40189 6.80491 5710 ft 249 kts 103°
2026-05-07 12:02 43.39788 6.82779 5313 ft 244 kts 103°
2026-05-07 12:02 43.39436 6.85054 4914 ft 243 kts 93°
2026-05-07 12:02 43.39798 6.87249 4693 ft 239 kts 53°
2026-05-07 12:02 43.41082 6.88622 4572 ft 236 kts 17°
2026-05-07 12:03 43.42639 6.89351 4441 ft 238 kts 26°
2026-05-07 12:03 43.43828 6.90916 4322 ft 241 kts 52°
2026-05-07 12:03 43.44900 6.92685 4191 ft 240 kts 44°
2026-05-07 12:03 43.46082 6.94305 4080 ft 240 kts 43°
2026-05-07 12:04 43.47273 6.95908 4002 ft 239 kts 43°
2026-05-07 12:04 43.48454 6.97513 4009 ft 239 kts 43°
2026-05-07 12:04 43.49638 6.99126 4008 ft 239 kts 43°
2026-05-07 12:04 43.50812 7.00729 3919 ft 234 kts 43°
2026-05-07 12:05 43.51965 7.02302 3655 ft 233 kts 43°
2026-05-07 12:05 43.53104 7.03858 3359 ft 227 kts 44°
2026-05-07 12:05 43.54179 7.05327 3079 ft 210 kts 44°
2026-05-07 12:05 43.55173 7.06688 2811 ft 193 kts 43°
2026-05-07 12:06 43.56084 7.07932 2593 ft 178 kts 43°
2026-05-07 12:06 43.56935 7.09096 2335 ft 165 kts 44°
2026-05-07 12:06 43.57721 7.10172 2106 ft 155 kts 44°
2026-05-07 12:06 43.58470 7.11197 1902 ft 150 kts 45°
2026-05-07 12:07 43.59202 7.12200 1712 ft 147 kts 45°
2026-05-07 12:07 43.59917 7.13179 1520 ft 145 kts 45°
2026-05-07 12:07 43.60635 7.14164 1323 ft 145 kts 46°
2026-05-07 12:07 43.61358 7.15154 1123 ft 146 kts 48°
2026-05-07 12:08 43.62072 7.16133 931 ft 144 kts 49°
2026-05-07 12:08 43.62773 7.17102 737 ft 142 kts 49°
2026-05-07 12:08 43.63466 7.18065 535 ft 141 kts 46°
2026-05-07 12:08 43.64156 7.19003 359 ft 138 kts 49°
2026-05-07 12:09 43.64839 7.19925 172 ft 137 kts 48°
2026-05-07 12:09 43.65509 7.20851 27 ft 132 kts 47°
2026-05-07 12:09 43.66053 7.21605 20 ft 86 kts 45°
2026-05-07 12:09 43.66311 7.21941 23 ft 24 kts 30°
2026-05-07 12:10 43.66318 7.21946 23 ft 22 kts 29°
2026-05-07 12:10 43.66348 7.21968 23 ft 1 kts 24°
2026-05-07 12:10 43.66373 7.21983 23 ft 2 kts 24°
2026-05-07 12:10 43.66474 7.22041 21 ft 15 kts 15°
2026-05-07 12:11 43.66549 7.21995 23 ft 12 kts 274°
2026-05-07 12:11 43.66505 7.21904 21 ft 11 kts 225°
2026-05-07 12:11 43.66454 7.21834 21 ft 10 kts 224°
2026-05-07 12:11 43.66409 7.21773 21 ft 9 kts 225°
2026-05-07 12:12 43.66353 7.21696 21 ft 17 kts 225°
2026-05-07 12:12 43.66264 7.21575 21 ft 18 kts 225°
2026-05-07 12:12 43.66168 7.21443 21 ft 20 kts 225°
2026-05-07 12:12 43.66063 7.21298 21 ft 22 kts 225°
2026-05-07 12:13 43.65948 7.21139 21 ft 24 kts 225°
2026-05-07 12:13 43.65828 7.20976 21 ft 20 kts 226°
2026-05-07 12:13 43.65729 7.20835 21 ft 20 kts 225°
2026-05-07 12:13 43.65644 7.20713 21 ft 12 kts 238°
2026-05-07 12:14 43.65650 7.20637 21 ft 2 kts 307°
2026-05-07 12:14 43.65655 7.20628 21 ft 1 kts 307°
2026-05-07 12:14 43.65656 7.20627 21 ft 0 kts 307°
2026-05-07 12:14 43.65656 7.20626 21 ft 1 kts 308°
2026-05-07 12:15 43.65682 7.20546 21 ft 12 kts 257°
2026-05-07 12:15 43.65669 7.20474 21 ft 6 kts 315°
2026-05-07 12:15 43.65696 7.20438 21 ft 7 kts 315°
2026-05-07 12:15 43.65725 7.20400 21 ft 0 kts 315°